Location: Unspecified
(39.6304°N, 0.0000°E)
Time: 01:14:12
(UTC+00:00)

RS-13 - Visible Passes

Search period start: 04 April 2026 00:00
Search period end: 14 April 2026 00:00
Orbit: 961 x 1004 km, 82.9° (Epoch: 28 March)

Date Brightness Start Highest point End Pass type
(mag) Time Alt. Az. Time Alt. Az. Time Alt. Az.
4 Apr 7.7 01:39:38 10° NNW 01:40:45 15° NNW 01:40:45 15° NNW visible
5 Apr 7.6 00:21:08 10° N 00:23:07 21° N 00:23:07 21° N visible
5 Apr 7.9 23:04:45 10° NNE 23:05:32 12° NE 23:05:32 12° NE visible
6 Apr 7.5 00:48:26 10° N 00:50:20 21° NNW 00:50:20 21° NNW visible
6 Apr 7.7 23:30:51 10° NNE 23:32:44 18° NNE 23:32:44 18° NNE visible
7 Apr 7.6 01:16:09 10° NNW 01:17:32 17° NNW 01:17:32 17° NNW visible
7 Apr 7.4 23:57:42 10° N 23:59:57 23° N 23:59:57 23° N visible
8 Apr 7.9 01:44:30 10° NW 01:44:45 11° NW 01:44:45 11° NW visible
8 Apr 7.9 22:41:30 10° NNE 22:42:23 12° NE 22:42:23 12° NE visible
9 Apr 7.4 00:24:59 10° N 00:27:11 23° NNW 00:27:11 23° NNW visible
9 Apr 7.5 23:07:30 10° NNE 23:09:36 19° NNE 23:09:36 19° NNE visible
10 Apr 7.5 00:52:40 10° NNW 00:54:24 19° NNW 00:54:24 19° NNW visible
10 Apr 7.3 23:34:18 10° N 23:36:51 25° NNE 23:36:51 25° NNE visible
11 Apr 7.8 01:20:56 10° NW 01:21:39 12° NW 01:21:39 12° NW visible
11 Apr 7.8 22:18:16 10° NE 22:19:17 12° NE 22:19:17 12° NE visible
12 Apr 7.2 00:01:33 10° N 00:04:05 26° N 00:04:05 26° N visible
12 Apr 7.4 22:44:07 10° NNE 22:46:33 20° NE 22:46:33 20° NE visible
13 Apr 7.4 00:29:10 10° NNW 00:31:21 22° NNW 00:31:21 22° NNW visible
13 Apr 7.1 23:10:53 10° N 23:13:48 28° NNE 23:13:48 28° NNE visible
